Location: Bergnerzell
(49.1816°N, 10.2565°E)
Time: 22:36:39
(UTC+00:00)

Okean 1-7 - Pass Details

Date: 23 May 2024
Orbit: 579 x 604 km, 82.5° (Epoch: 14 June)

Event Time Altitude Azimuth Distance (km) Brightness Sun altitude
Exits shadow 01:30:18 20° 241° (WSW) 1,420 4.4 -14.0°
Maximum altitude 01:32:30 31° 288° (WNW) 1,070 4.1 -13.8°
Drops below altitude 10° 01:36:22 10° 351° (N) 1,958 6.3 -13.5°
Sets 01:38:49 0° 2° (N) 2,869 7.5 -13.3°
